IPM 2 & BREEZE-M R/B (47242 NORAD) Tracking and Keplerian Element Data

This shows tracking and keplerian element data for the satellite.

Feedback or suggestion? Click here.




ElementValue
Catalog47242
NameIPM 2 & BREEZE-M R/B
Epoch Orbit120
Epoch Day100.18616565
Epoch Year2021
RAAN112.6534
Inclination0.2794
Eccentricity0.0087959
Argument of Perigee210.3317
Mean Anonmoly18.8702
Mean Motion0.95296614
Decay Rate-7.2E-07
L11 47242U 20097A 21100.18616565 -.00000072 00000-0 00000-0 0 9999
L22 47242 0.2794 112.6534 0087959 210.3317 18.8702 0.95296614 1201

Live tracking and technical data element details for IPM 2 & BREEZE-M R/B (NORAD 47242). IPM 2 & BREEZE-M R/B can be tracked NOW for your location showing map with azimuth and elevation plus other details from your city location.

Track the satellite on the map from your city or location and see movement details for azimuth, elevation, latitude, longitude, range, height, and movement on the map or in text.







IsCatalogInMostPopularTable: catalog: 47242, numindb: 32
Update: records affected: 1



GetName: 47242 IPM 2 & BREEZE-M R/B

Hit Count: updated at: Tue, 13 Apr 2021 05:01:14 GMT